sat.trackr.live / text

‹ back to catalog

STARLINK-5549

NORAD 56360 · 2023-058AV

PAYLOAD ACTIVE UNKNOWN

§ Identity

Operator
Country
US
Launch date
2023-04-27
Launch site
AFWTR
Launch vehicle
Mass (kg)
RCS (m²)

Purposes: comms

External: N2YO · Heavens-Above · Gunter

§ Orbital elements

Epoch: 2026-05-24T22:59:39.689664Z

Period
95.64 min
Inclination
97.4508°
Eccentricity
0.0001579
Mean motion
15.05654714 rev/d
Perigee alt
548.4 km
Apogee alt
550.6 km
Semi-major
6,927.6 km
B*
7.9307e-5
RAAN
146.0443°
Arg perigee
76.1869°
Mean anomaly
283.9534°
Rev number
16,967

§ Raw data

STARLINK-55491 56360U 23058AV  26144.95809826  .00001086  00000+0  79307-4 0  99962 56360  97.4508 146.0443 0001579  76.1869 283.9534 15.05654714169677

JSON: /api/v1/satellites/56360 · /tle

For live sub-satellite position, see the globe view (requires WebGL).

§ Visibility from observer

Set your observer location to see the next 7 days of passes ≥ 10°. The values pass through the URL so the page stays shareable.

No JS? Fill the form by hand. The geolocation button needs JavaScript.